Flag for France Weather past 2 weeks in Strasbourg, France

Now
45 °F

Overcast.


Feels Like: 39 °F
Forecast: 40 / 46 °F
Wind: 10 mph from Southwest

Location: Strasbourg Airport

Current Time: Dec 21, 2014 at 10:00:19 PM

Latest Report: Dec 21, 2014 at 9:30 PM


Visibility: N/A

Pressure: 30.48 "Hg

Humidity: 76%

Dew point: 37 °F

Location of StrasbourgLocation

Historic Weather in Strasbourg — Graph

°F

Strasbourg temperature yesterday

Maximum temperature yesterday: 50 °F (at 12:00 AM)
Minimum temperature yesterday: 37 °F (at 9:00 AM)
Average temperature yesterday: 44 °F

Past Weeks' High & Low Weather Summary

 TemperatureHumidityPressure
High57 °F (Dec 18, 8:00 PM)100% (Dec 8, 10:30 PM)30.54 "Hg (Dec 8, 10:30 PM)
Low28 °F (Dec 10, 12:30 AM)44% (Dec 15, 2:30 PM)29.74 "Hg (Dec 12, 5:00 PM)
Average44 °F85%30.11 "Hg
* Reported Dec 6 9:00 PM — Dec 21 9:00 PM, Strasbourg, Weather by CustomWeather, © 2014

Note: Actual official high and low records may vary slightly from our data, if they occured in-between our weather recording intervals... More about our weather records

Advertising

Strasbourg weather history for previous 24 hours

 ConditionsComfort  
Time TempWeatherWind HumidityBarometerVisibility
9:00 PM
Dec 21
45 °FOvercast.10 mph76%30.48 "HgN/A
8:30 PM45 °FOvercast.10 mph76%30.51 "HgN/A
8:00 PM45 °FOvercast.9 mph76%30.48 "HgN/A
7:30 PM45 °FOvercast.10 mph76%30.51 "HgN/A
7:00 PM45 °FOvercast.12 mph71%30.51 "HgN/A
6:30 PM45 °FOvercast.8 mph76%30.51 "HgN/A
6:00 PM45 °FOvercast.9 mph76%30.48 "HgN/A
5:30 PM45 °FMostly cloudy.8 mph76%30.51 "HgN/A
5:00 PM46 °FOvercast.10 mph66%30.48 "HgN/A
4:30 PM46 °FOvercast.7 mph66%30.51 "HgN/A
4:00 PM46 °FOvercast.7 mph66%30.51 "HgN/A
3:30 PM46 °FMostly cloudy.9 mph71%30.51 "HgN/A
3:00 PM46 °FMostly cloudy.8 mph71%30.51 "HgN/A
2:30 PM46 °FOvercast.10 mph71%30.51 "HgN/A
2:00 PM46 °FOvercast.9 mph71%30.51 "HgN/A
1:30 PM46 °FMostly cloudy.8 mph66%30.54 "HgN/A
1:00 PM46 °FMostly cloudy.9 mph71%30.54 "HgN/A
12:30 PM46 °FOvercast.8 mph76%30.54 "HgN/A
12:00 PM46 °FOvercast.10 mph71%30.54 "HgN/A
11:30 AM46 °FPartly sunny.9 mph76%30.54 "HgN/A
11:00 AM45 °FScattered clouds.8 mph81%30.54 "HgN/A
10:30 AM43 °FPartly sunny.7 mph81%30.54 "HgN/A
10:00 AM39 °FBroken clouds.6 mph93%30.54 "HgN/A
9:30 AM39 °FPassing clouds.7 mph93%30.54 "HgN/A
9:00 AM39 °FPartly sunny.8 mph93%30.54 "HgN/A
8:30 AM39 °FPartly sunny.7 mph93%30.54 "HgN/A
8:00 AM39 °FOvercast.7 mph93%30.54 "HgN/A
7:30 AM39 °FOvercast.7 mph93%30.54 "HgN/A
7:00 AM39 °FPassing clouds.7 mph93%30.54 "HgN/A
6:30 AM39 °FOvercast.7 mph93%30.51 "HgN/A
6:00 AM39 °FClear.8 mph93%30.51 "HgN/A
5:30 AM39 °FClear.7 mph87%30.51 "HgN/A
5:00 AM41 °FClear.7 mph87%30.51 "HgN/A
4:30 AM39 °FClear.7 mph87%30.51 "HgN/A
4:00 AM39 °FClear.5 mph87%30.51 "HgN/A
3:30 AM37 °FClear.6 mph87%30.51 "HgN/A
3:00 AM39 °FClear.7 mph81%30.48 "HgN/A
2:30 AM41 °FClear.8 mph87%30.48 "HgN/A
2:00 AM43 °FClear.10 mph81%30.48 "HgN/A
1:30 AM43 °FClear.9 mph81%30.48 "HgN/A
1:00 AM39 °FClear.8 mph87%30.45 "HgN/A
12:30 AM37 °FClear.7 mph93%30.45 "HgN/A
12:00 AM39 °FPassing clouds.6 mph87%30.45 "HgN/A
11:30 PM
Dec 20
39 °FClear.8 mph87%30.45 "HgN/A
11:00 PM41 °FQuite cool.13 mph87%30.42 "HgN/A
10:30 PM43 °FPassing clouds.9 mph81%30.42 "HgN/A
10:00 PM43 °FOvercast.8 mph81%30.42 "HgN/A
Weather by CustomWeather, © 2014

See weather overviewHow to use our weather pages